Time,TemperatureF,DewpointF,PressureIn,WindDirection,WindDirectionDegrees,WindSpeedMPH,WindSpeedGustMPH,Humidity,HourlyPrecipIn,Conditions,Clouds,dailyrainin,SoftwareType,DateUTC
2013-02-01 00:11:00,52.8,39.0,29.71,SE,144,0.0,-999.0,60,-99.99,,,0.00,weatherlink.com 1.10,2013-02-01 08:11:00,
2013-02-01 00:26:00,53.5,39.0,29.71,SE,144,0.0,-999.0,59,-99.99,,,0.00,weatherlink.com 1.10,2013-02-01 08:26:00,
2013-02-01 00:41:00,55.1,39.0,29.71,SE,144,0.0,-999.0,55,-99.99,,,0.00,weatherlink.com 1.10,2013-02-01 08:41:00,
2013-02-01 00:56:00,55.7,38.0,29.71,SSE,157,0.0,-999.0,51,-99.99,,,0.00,weatherlink.com 1.10,2013-02-01 08:56:00,
2013-02-01 01:11:00,54.8,37.0,29.71,SSE,157,0.0,-999.0,51,-99.99,,,0.00,weatherlink.com 1.10,2013-02-01 09:11:00,
2013-02-01 01:26:00,54.6,36.0,29.71,SSE,157,0.0,-999.0,50,-99.99,,,0.00,weatherlink.com 1.10,2013-02-01 09:26:00,
2013-02-01 01:41:00,53.7,36.0,29.71,SSE,157,0.0,-999.0,52,-99.99,,,0.00,weatherlink.com 1.10,2013-02-01 09:41:00,
2013-02-01 01:56:00,53.8,36.0,29.71,SSE,155,0.0,-999.0,52,-99.99,,,0.00,weatherlink.com 1.10,2013-02-01 09:56:00,
2013-02-01 02:11:00,54.1,36.0,29.71,SSE,153,0.0,-999.0,50,-99.99,,,0.00,weatherlink.com 1.10,2013-02-01 10:11:00,
2013-02-01 02:41:00,54.4,35.0,29.71,SSE,150,0.0,-999.0,49,-99.99,,,0.00,weatherlink.com 1.10,2013-02-01 10:41:00,
2013-02-01 02:56:00,53.8,35.0,29.72,SSE,150,0.0,-999.0,50,-99.99,,,0.00,weatherlink.com 1.10,2013-02-01 10:56:00,
2013-02-01 03:11:00,53.6,35.0,29.71,SSE,149,0.0,-999.0,50,-99.99,,,0.00,weatherlink.com 1.10,2013-02-01 11:11:00,
2013-02-01 03:26:00,54.9,35.0,29.71,SSE,149,2.0,-999.0,48,-99.99,,,0.00,weatherlink.com 1.10,2013-02-01 11:26:00,
2013-02-01 03:41:00,55.1,34.0,29.71,SSE,150,0.0,-999.0,46,-99.99,,,0.00,weatherlink.com 1.10,2013-02-01 11:41:00,
2013-02-01 03:56:00,54.5,35.0,29.71,SSE,150,0.0,-999.0,48,-99.99,,,0.00,weatherlink.com 1.10,2013-02-01 11:56:00,
2013-02-01 04:11:00,53.4,34.0,29.71,SSE,150,0.0,-999.0,48,-99.99,,,0.00,weatherlink.com 1.10,2013-02-01 12:11:00,
2013-02-01 04:26:00,53.2,34.0,29.70,SSE,149,0.0,-999.0,48,-99.99,,,0.00,weatherlink.com 1.10,2013-02-01 12:26:00,
2013-02-01 04:41:00,53.9,34.0,29.70,SSE,149,0.0,-999.0,48,-99.99,,,0.00,weatherlink.com 1.10,2013-02-01 12:41:00,
2013-02-01 04:56:00,53.4,34.0,29.70,SSE,150,0.0,-999.0,48,-99.99,,,0.00,weatherlink.com 1.10,2013-02-01 12:56:00,
2013-02-01 05:11:00,54.0,34.0,29.70,SSE,150,0.0,-999.0,48,-99.99,,,0.00,weatherlink.com 1.10,2013-02-01 13:11:00,
2013-02-01 05:26:00,54.8,35.0,29.70,SSE,150,0.0,-999.0,47,-99.99,,,0.00,weatherlink.com 1.10,2013-02-01 13:26:00,
2013-02-01 05:41:00,54.6,35.0,29.70,SE,145,0.0,-999.0,47,-99.99,,,0.00,weatherlink.com 1.10,2013-02-01 13:41:00,
2013-02-01 05:56:00,54.5,34.0,29.70,SE,146,0.0,-999.0,47,-99.99,,,0.00,weatherlink.com 1.10,2013-02-01 13:56:00,
2013-02-01 06:11:00,55.3,34.0,29.70,SE,143,0.0,-999.0,45,-99.99,,,0.00,weatherlink.com 1.10,2013-02-01 14:11:00,
2013-02-01 06:26:00,56.6,34.0,29.70,SSE,157,0.0,-999.0,43,-99.99,,,0.00,weatherlink.com 1.10,2013-02-01 14:26:00,
2013-02-01 06:41:00,56.0,34.0,29.70,SSE,155,0.0,-999.0,43,-99.99,,,0.00,weatherlink.com 1.10,2013-02-01 14:41:00,
2013-02-01 06:56:00,55.3,35.0,29.70,SSE,152,0.0,-999.0,46,-99.99,,,0.00,weatherlink.com 1.10,2013-02-01 14:56:00,
2013-02-01 07:11:00,55.1,34.0,29.70,SSE,156,2.0,-999.0,45,-99.99,,,0.00,weatherlink.com 1.10,2013-02-01 15:11:00,
2013-02-01 07:26:00,54.3,33.0,29.71,SSE,153,0.0,-999.0,45,-99.99,,,0.00,weatherlink.com 1.10,2013-02-01 15:26:00,
2013-02-01 07:41:00,54.4,34.0,29.71,SSE,157,0.0,-999.0,47,-99.99,,,0.00,weatherlink.com 1.10,2013-02-01 15:41:00,
2013-02-01 07:56:00,56.0,35.0,29.71,SSE,157,0.0,-999.0,46,-99.99,,,0.00,weatherlink.com 1.10,2013-02-01 15:56:00,
2013-02-01 08:11:00,59.0,40.0,29.70,SSE,156,0.0,-999.0,50,-99.99,,,0.00,weatherlink.com 1.10,2013-02-01 16:11:00,
2013-02-01 08:26:00,60.6,37.0,29.71,SSE,156,0.0,-999.0,41,-99.99,,,0.00,weatherlink.com 1.10,2013-02-01 16:26:00,
2013-02-01 08:41:00,61.3,37.0,29.72,SSE,156,0.0,-999.0,41,-99.99,,,0.00,weatherlink.com 1.10,2013-02-01 16:41:00,
2013-02-01 08:56:00,62.6,38.0,29.72,South,182,0.0,-999.0,40,-99.99,,,0.00,weatherlink.com 1.10,2013-02-01 16:56:00,
2013-02-01 09:11:00,62.9,37.0,29.72,South,182,0.0,-999.0,38,-99.99,,,0.00,weatherlink.com 1.10,2013-02-01 17:11:00,
2013-02-01 09:26:00,63.1,36.0,29.72,South,182,0.0,-999.0,37,-99.99,,,0.00,weatherlink.com 1.10,2013-02-01 17:26:00,
2013-02-01 09:41:00,64.1,36.0,29.72,South,182,0.0,-999.0,36,-99.99,,,0.00,weatherlink.com 1.10,2013-02-01 17:41:00,
2013-02-01 09:56:00,66.0,41.0,29.72,South,182,0.0,-999.0,40,-99.99,,,0.00,weatherlink.com 1.10,2013-02-01 17:56:00,
2013-02-01 10:11:00,66.1,38.0,29.72,South,174,0.0,-999.0,36,-99.99,,,0.00,weatherlink.com 1.10,2013-02-01 18:11:00,
2013-02-01 10:26:00,65.9,38.0,29.71,South,170,0.0,-999.0,36,-99.99,,,0.00,weatherlink.com 1.10,2013-02-01 18:26:00,
2013-02-01 10:41:00,66.3,39.0,29.72,SSE,163,0.0,-999.0,37,-99.99,,,0.00,weatherlink.com 1.10,2013-02-01 18:41:00,
2013-02-01 10:56:00,66.9,40.0,29.71,SSE,161,0.0,-999.0,38,-99.99,,,0.00,weatherlink.com 1.10,2013-02-01 18:56:00,
2013-02-01 11:11:00,68.2,42.0,29.72,SSW,200,0.0,-999.0,39,-99.99,,,0.00,weatherlink.com 1.10,2013-02-01 19:11:00,
2013-02-01 11:26:00,70.5,41.0,29.71,North,355,0.0,-999.0,35,-99.99,,,0.00,weatherlink.com 1.10,2013-02-01 19:26:00,
2013-02-01 11:41:00,68.3,41.0,29.70,North,11,0.0,-999.0,37,-99.99,,,0.00,weatherlink.com 1.10,2013-02-01 19:41:00,
2013-02-01 11:56:00,66.8,41.0,29.70,NNE,33,0.0,-999.0,39,-99.99,,,0.00,weatherlink.com 1.10,2013-02-01 19:56:00,
2013-02-01 12:11:00,66.8,41.0,29.69,NNE,31,0.0,-999.0,39,-99.99,,,0.00,weatherlink.com 1.10,2013-02-01 20:11:00,
2013-02-01 12:26:00,66.5,41.0,29.69,NE,36,0.0,-999.0,40,-99.99,,,0.00,weatherlink.com 1.10,2013-02-01 20:26:00,
2013-02-01 12:41:00,66.4,41.0,29.68,NE,46,2.0,-999.0,39,-99.99,,,0.00,weatherlink.com 1.10,2013-02-01 20:41:00,
2013-02-01 12:57:00,65.9,41.0,29.68,NE,53,0.0,-999.0,41,-99.99,,,0.00,weatherlink.com 1.10,2013-02-01 20:57:00,
2013-02-01 13:26:00,65.9,44.0,29.67,NNE,29,0.0,-999.0,46,-99.99,,,0.00,weatherlink.com 1.10,2013-02-01 21:26:00,
2013-02-01 13:41:00,66.8,43.0,29.67,North,9,1.0,-999.0,43,-99.99,,,0.00,weatherlink.com 1.10,2013-02-01 21:41:00,
2013-02-01 13:56:00,66.2,44.0,29.66,NNE,28,0.0,-999.0,45,-99.99,,,0.00,weatherlink.com 1.10,2013-02-01 21:56:00,
2013-02-01 14:11:00,66.1,45.0,29.66,North,5,0.0,-999.0,47,-99.99,,,0.00,weatherlink.com 1.10,2013-02-01 22:11:00,
2013-02-01 14:26:00,66.1,46.0,29.67,North,11,0.0,-999.0,49,-99.99,,,0.00,weatherlink.com 1.10,2013-02-01 22:26:00,
2013-02-01 14:41:00,65.0,45.0,29.67,NNE,24,2.0,-999.0,49,-99.99,,,0.00,weatherlink.com 1.10,2013-02-01 22:41:00,
2013-02-01 14:56:00,63.7,42.0,29.67,East,91,2.0,-999.0,46,-99.99,,,0.00,weatherlink.com 1.10,2013-02-01 22:56:00,
2013-02-01 15:11:00,62.2,42.0,29.67,ESE,107,3.0,-999.0,48,-99.99,,,0.00,weatherlink.com 1.10,2013-02-01 23:11:00,
2013-02-01 15:26:00,61.4,41.0,29.67,East,93,0.0,-999.0,47,-99.99,,,0.00,weatherlink.com 1.10,2013-02-01 23:26:00,
2013-02-01 15:41:00,60.8,40.0,29.68,ENE,63,0.0,-999.0,47,-99.99,,,0.00,weatherlink.com 1.10,2013-02-01 23:41:00,
2013-02-01 15:56:00,60.2,41.0,29.68,NE,37,2.0,-999.0,50,-99.99,,,0.00,weatherlink.com 1.10,2013-02-01 23:56:00,
2013-02-01 16:11:00,59.2,40.0,29.68,East,96,0.0,-999.0,50,-99.99,,,0.00,weatherlink.com 1.10,2013-02-02 00:11:00,
2013-02-01 16:41:00,58.6,38.0,29.68,NE,52,2.0,-999.0,47,-99.99,,,0.00,weatherlink.com 1.10,2013-02-02 00:41:00,
2013-02-01 16:56:00,58.0,38.0,29.68,NE,41,0.0,-999.0,48,-99.99,,,0.00,weatherlink.com 1.10,2013-02-02 00:56:00,
2013-02-01 17:11:00,57.7,38.0,29.69,NNE,32,0.0,-999.0,48,-99.99,,,0.00,weatherlink.com 1.10,2013-02-02 01:11:00,
2013-02-01 17:26:00,57.3,39.0,29.69,East,101,0.0,-999.0,50,-99.99,,,0.00,weatherlink.com 1.10,2013-02-02 01:26:00,
2013-02-01 17:41:00,57.1,38.0,29.70,ESE,112,0.0,-999.0,49,-99.99,,,0.00,weatherlink.com 1.10,2013-02-02 01:41:00,
2013-02-01 17:56:00,56.9,38.0,29.70,ESE,117,0.0,-999.0,49,-99.99,,,0.00,weatherlink.com 1.10,2013-02-02 01:56:00,
2013-02-01 18:11:00,56.6,38.0,29.71,ESE,117,0.0,-999.0,50,-99.99,,,0.00,weatherlink.com 1.10,2013-02-02 02:11:00,
2013-02-01 18:26:00,56.7,38.0,29.71,SE,125,0.0,-999.0,50,-99.99,,,0.00,weatherlink.com 1.10,2013-02-02 02:26:00,
2013-02-01 18:41:00,56.1,38.0,29.71,SE,125,0.0,-999.0,52,-99.99,,,0.00,weatherlink.com 1.10,2013-02-02 02:41:00,
2013-02-01 18:56:00,54.8,39.0,29.72,SE,127,0.0,-999.0,56,-99.99,,,0.00,weatherlink.com 1.10,2013-02-02 02:56:00,
2013-02-01 19:11:00,54.1,40.0,29.73,SSE,155,0.0,-999.0,59,-99.99,,,0.00,weatherlink.com 1.10,2013-02-02 03:11:00,
2013-02-01 19:26:00,53.9,39.0,29.72,SSE,153,0.0,-999.0,58,-99.99,,,0.00,weatherlink.com 1.10,2013-02-02 03:26:00,
2013-02-01 19:41:00,54.4,39.0,29.73,WSW,241,0.0,-999.0,57,-99.99,,,0.00,weatherlink.com 1.10,2013-02-02 03:41:00,
2013-02-01 19:56:00,54.7,40.0,29.73,SW,230,0.0,-999.0,58,-99.99,,,0.00,weatherlink.com 1.10,2013-02-02 03:56:00,
2013-02-01 20:11:00,54.2,39.0,29.73,SW,230,0.0,-999.0,57,-99.99,,,0.00,weatherlink.com 1.10,2013-02-02 04:11:00,
2013-02-01 20:26:00,54.1,40.0,29.73,SSW,213,0.0,-999.0,59,-99.99,,,0.00,weatherlink.com 1.10,2013-02-02 04:26:00,
2013-02-01 20:41:00,54.1,39.0,29.73,SSW,192,0.0,-999.0,57,-99.99,,,0.00,weatherlink.com 1.10,2013-02-02 04:41:00,
2013-02-01 20:56:00,54.7,39.0,29.74,South,176,0.0,-999.0,56,-99.99,,,0.00,weatherlink.com 1.10,2013-02-02 04:56:00,
2013-02-01 21:11:00,54.7,40.0,29.74,South,176,0.0,-999.0,57,-99.99,,,0.00,weatherlink.com 1.10,2013-02-02 05:11:00,
2013-02-01 21:26:00,54.6,41.0,29.74,South,174,0.0,-999.0,60,-99.99,,,0.00,weatherlink.com 1.10,2013-02-02 05:26:00,
2013-02-01 21:41:00,54.3,40.0,29.73,South,174,0.0,-999.0,59,-99.99,,,0.00,weatherlink.com 1.10,2013-02-02 05:41:00,
2013-02-01 21:56:00,53.4,40.0,29.74,West,271,4.0,-999.0,61,-99.99,,,0.00,weatherlink.com 1.10,2013-02-02 05:56:00,
2013-02-01 22:11:00,52.8,40.0,29.74,West,271,0.0,-999.0,62,-99.99,,,0.00,weatherlink.com 1.10,2013-02-02 06:11:00,
2013-02-01 22:26:00,52.8,41.0,29.74,West,269,0.0,-999.0,64,-99.99,,,0.00,weatherlink.com 1.10,2013-02-02 06:26:00,
2013-02-01 22:41:00,53.7,41.0,29.75,West,269,0.0,-999.0,62,-99.99,,,0.00,weatherlink.com 1.10,2013-02-02 06:41:00,
2013-02-01 22:56:00,53.5,40.0,29.75,West,279,0.0,-999.0,61,-99.99,,,0.00,weatherlink.com 1.10,2013-02-02 06:56:00,
2013-02-01 23:11:00,53.2,40.0,29.75,West,281,0.0,-999.0,61,-99.99,,,0.00,weatherlink.com 1.10,2013-02-02 07:11:00,
2013-02-01 23:26:00,53.0,40.0,29.75,West,280,0.0,-999.0,62,-99.99,,,0.00,weatherlink.com 1.10,2013-02-02 07:26:00,
2013-02-01 23:41:00,53.3,40.0,29.75,West,280,0.0,-999.0,61,-99.99,,,0.00,weatherlink.com 1.10,2013-02-02 07:41:00,
2013-02-01 23:56:00,54.0,41.0,29.75,ENE,66,0.0,-999.0,61,-99.99,,,0.00,weatherlink.com 1.10,2013-02-02 07:56:00,